Regional Weather Roundup
Issued by NWS

Home | Current Version | Previous Version | Text Only | Print | Product List | Glossary On
Versions: 1 2 3 4 5 6 7 8 9 10 11 12 13 14 15 16 17 18 19 20 21 22 23 24 25 26 27 28 29 30 31 32 33 34 35 36 37 38 39 40 41 42 43 44 45 46 47 48 49 50
000
ASUS43 KLSX 120357
RWRMO

WEATHER SUMMARY FOR MISSOURI
NATIONAL WEATHER SERVICE SPRINGFIELD MO
1000 PM CST THU FEB 11 2016

NOTE: "FAIR" INDICATES FEW OR NO CLOUDS BELOW 12,000 FEET WITH NO
       SIGNIFICANT WEATHER AND/OR OBSTRUCTIONS TO VISIBILITY.
       CURRENT SKY AND/OR WEATHER CONDITIONS ARE NOT AVAILABLE FOR
       CHILLICOTHE AND FARMINGTON.

MOZ001>031-035>038-043-044-053-054-120500-
...NORTHERN AND WESTERN MISSOURI...

CITY           SKY/WX    TMP DP  RH WIND       PRES   REMARKS
KANSAS CTY INT CLOUDY    31  21  66 E8        30.18S WCI  23
LEE`S SUMMIT   CLOUDY    33  20  58 E7        30.18F WCI  27
ST JOSEPH      MOCLDY    31  21  66 SE5       30.19F WCI  26
CHILLICOTHE      N/A     27  14  58 E5        30.24R WCI  22

$$
MOZ066>068-077>081-088>096-101>105-120500-
...SOUTHWEST MISSOURI...

CITY           SKY/WX    TMP DP  RH WIND       PRES   REMARKS
SPRINGFIELD    CLOUDY    38  22  52 N3        30.16R
JOPLIN         PTCLDY    38  23  55 CALM      30.17S

$$
MOZ032>034-039>042-045>050-055>058-069>072-120500-
...CENTRAL MISSOURI...

CITY           SKY/WX    TMP DP  RH WIND       PRES   REMARKS
COLUMBIA       LGT SNOW  28  19  69 E9        30.22R WCI  20
JEFFERSON CITY CLOUDY    30  20  66 E6        30.25R WCI  24
ROLLA          CLOUDY    29  20  69 E8        30.18S WCI  21
SEDALIA        FLURRIES  32  20  61 SE10      30.16F WCI  24
WHITEMAN AFB   MOCLDY    32  21  64 SE8       30.14F WCI  25

$$
MOZ051-052-059>065-120500-
...EAST CENTRAL MISSOURI...

CITY           SKY/WX    TMP DP  RH WIND       PRES   REMARKS
ST LOUIS INTL  CLOUDY    28  12  51 E7        30.27S WCI  21

$$
MOZ072>076-082>087-097>100-106>115-120500-
...SOUTH CENTRAL AND SOUTHEAST MISSOURI...

CITY           SKY/WX    TMP DP  RH WIND       PRES   REMARKS
CAPE GIRARDEAU CLOUDY    32  20  61 E9        30.27F WCI  24
POPLAR BLUFF   CLOUDY    33  22  63 NE6       30.24F WCI  28
WEST PLAINS    CLOUDY    34  19  54 SE8       30.18F WCI  27

$$


USA.gov is the U.S. government's official web portal to all federal, state and local government web resources and services.